OK,136,59,949,136,2014-10-01T01:40:00,0,28072719,192520
OK,136,59,949,136,2014-10-01T01:45:00,0,28073166,192520
OK,136,59,949,136,2014-10-01T01:50:00,0,28073614,192520
OK,136,59,949,136,2014-10-01T01:55:00,0,28073932,192520
OK,136,59,949,136,2014-10-01T02:00:00,0,28074381,192520
OK,157,51,949,157,2014-10-01T02:05:00,0,28074822,192520
OK,157,51,949,157,2014-10-01T02:10:00,0,28075270,192520
OK,157,51,949,157,2014-10-01T02:15:00,0,28075719,192520
OK,157,51,949,157,2014-10-01T02:20:00,0,28076102,192520
OK,157,51,949,157,2014-10-01T02:25:00,0,28076551,192520
OK,157,51,949,157,2014-10-01T02:30:00,0,28077000,192520
OK,157,51,949,157,2014-10-01T02:35:00,0,28077449,192520
OK,157,51,949,157,2014-10-01T02:40:00,0,28077852,192520
OK,157,51,949,157,2014-10-01T02:45:00,0,28078301,192520
OK,157,51,949,157,2014-10-01T02:50:00,0,28078746,192520
OK,157,51,949,157,2014-10-01T02:55:00,0,28079195,192520
OK,157,51,949,157,2014-10-01T03:00:00,0,28079637,192520
OK,157,51,949,157,2014-10-01T03:05:00,0,28080086,192520
OK,157,51,949,157,2014-10-01T03:10:00,0,28080420,192520
OK,157,51,949,157,2014-10-01T03:15:00,0,28080869,192520
OK,157,51,949,157,2014-10-01T03:20:00,0,28081318,192520
OK,157,51,949,157,2014-10-01T03:25:00,0,28081765,192520
OK,157,51,949,157,2014-10-01T03:30:00,0,28082214,192520
OK,157,51,949,157,2014-10-01T03:35:00,0,28082647,192520
OK,157,51,949,157,2014-10-01T03:40:00,0,28083079,192520
OK,157,51,949,157,2014-10-01T03:45:00,0,28083528,192520
OK,157,51,949,157,2014-10-01T03:50:00,0,28083977,192520
OK,157,51,949,157,2014-10-01T03:55:00,0,28084418,192520
OK,157,51,949,157,2014-10-01T04:00:00,0,28084843,192520
OK,157,51,949,157,2014-10-01T04:05:00,0,28085292,192520
OK,156,51,949,156,2014-10-01T04:10:00,1,28085737,192520
OK,154,52,949,154,2014-10-01T04:15:00,1,28086186,192520
OK,154,52,949,154,2014-10-01T04:20:00,0,28086628,192520
OK,154,52,949,154,2014-10-01T04:25:00,0,28087077,192520
OK,160,50,949,160,2014-10-01T04:30:00,1,28087522,192520
OK,160,50,949,160,2014-10-01T04:35:00,1,28087971,192520
OK,160,50,949,160,2014-10-01T04:40:00,0,28088395,192520
OK,160,50,949,160,2014-10-01T04:45:00,0,28088844,192520
OK,160,50,949,160,2014-10-01T04:50:00,0,28089274,192520
OK,160,50,949,160,2014-10-01T04:55:00,0,28089723,192520
OK,160,50,949,160,2014-10-01T05:00:00,0,28090172,192520
OK,167,48,949,167,2014-10-01T05:05:00,1,28090518,192520
OK,167,48,949,167,2014-10-01T05:10:00,1,28090965,192520
OK,168,48,949,168,2014-10-01T05:15:00,1,28091414,192520
OK,168,48,949,168,2014-10-01T05:20:00,1,28091831,192520
OK,146,55,949,146,2014-10-01T05:25:00,1,28092280,192520
OK,259,31,949,259,2014-10-01T05:30:00,3,28092724,192520
OK,259,31,949,259,2014-10-01T05:35:00,1,28093165,192520
OK,259,31,949,259,2014-10-01T05:40:00,0,28093596,192520
OK,278,29,949,278,2014-10-01T05:45:00,1,28094045,192520
OK,278,29,949,278,2014-10-01T05:50:00,1,28094456,192520
OK,278,29,949,278,2014-10-01T05:55:00,0,28094901,192520
OK,278,29,949,278,2014-10-01T06:00:00,0,28095348,192520
OK,278,29,949,278,2014-10-01T06:05:00,0,28095797,192520
OK,180,44,949,180,2014-10-01T06:10:00,1,28096210,192520
OK,180,44,949,180,2014-10-01T06:15:00,1,28096659,192520
OK,180,44,949,180,2014-10-01T06:20:00,0,28097093,192520
OK,156,51,949,156,2014-10-01T06:25:00,2,28097542,192520
OK,359,22,949,359,2014-10-01T06:30:00,3,28097991,192520
OK,368,21,949,368,2014-10-01T06:35:00,2,28098428,192520
OK,147,55,949,147,2014-10-01T06:40:00,1,28098872,192520
OK,147,55,949,147,2014-10-01T06:45:00,1,28099320,192520
OK,183,44,949,183,2014-10-01T06:50:00,1,28099663,192520
OK,183,44,949,183,2014-10-01T06:55:00,1,28100112,192520
OK,183,44,949,183,2014-10-01T07:00:00,0,28100419,192520
OK,163,49,949,163,2014-10-01T07:05:00,2,28100868,192520
OK,144,56,949,144,2014-10-01T07:10:00,2,28101239,192520
OK,147,55,949,147,2014-10-01T07:15:00,1,28101688,192520
OK,144,56,949,144,2014-10-01T07:20:00,1,28102124,192520
OK,144,56,949,144,2014-10-01T07:25:00,1,28102573,192520
OK,144,56,949,144,2014-10-01T07:30:00,0,28103001,192520
OK,144,56,949,144,2014-10-01T07:35:00,0,28103447,192520
OK,272,29,949,272,2014-10-01T07:40:00,1,28103892,192520
OK,272,29,949,272,2014-10-01T07:45:00,0,28104337,192520
OK,164,49,949,164,2014-10-01T07:50:00,1,28104778,192520
OK,164,49,949,164,2014-10-01T07:55:00,1,28105223,192520
OK,164,49,949,164,2014-10-01T08:00:00,0,28105663,192520
OK,164,49,949,164,2014-10-01T08:05:00,0,28106112,192520
OK,183,44,949,183,2014-10-01T08:10:00,1,28106549,192520
OK,183,44,949,183,2014-10-01T08:15:00,0,28106955,192520
OK,183,44,949,183,2014-10-01T08:20:00,0,28107387,192520
OK,180,44,949,180,2014-10-01T08:25:00,2,28107836,192520
OK,169,47,949,169,2014-10-01T08:30:00,3,28108275,192520
OK,163,49,949,163,2014-10-01T08:35:00,3,28108724,192520
OK,163,49,949,163,2014-10-01T08:40:00,2,28109152,192520
OK,163,49,949,163,2014-10-01T08:45:00,0,28109601,192520
OK,163,49,949,163,2014-10-01T08:50:00,0,28109944,192520
OK,163,49,949,163,2014-10-01T08:55:00,0,28110393,192520
OK,163,49,949,163,2014-10-01T09:00:00,0,28110816,192520
OK,163,49,949,163,2014-10-01T09:05:00,0,28111265,192520
OK,163,49,949,163,2014-10-01T09:10:00,0,28111694,192520
OK,163,49,949,163,2014-10-01T09:15:00,0,28112143,192520
OK,139,58,949,139,2014-10-01T09:20:00,2,28112484,192520
OK,142,56,949,142,2014-10-01T09:25:00,3,28112933,192520
OK,155,52,949,155,2014-10-01T09:30:00,2,28113357,192520
OK,156,51,949,156,2014-10-01T09:35:00,1,28113806,192520
OK,224,36,949,224,2014-10-01T09:40:00,1,28114238,192520
OK,185,43,949,185,2014-10-01T09:45:00,2,28114687,192520
OK,154,52,949,154,2014-10-01T09:50:00,1,28115041,192520
OK,169,47,949,169,2014-10-01T09:55:00,2,28115490,192520
OK,185,43,949,185,2014-10-01T10:00:00,1,28115902,192520
OK,158,51,949,158,2014-10-01T10:05:00,2,28116351,192520
OK,163,49,949,163,2014-10-01T10:10:00,3,28116759,192520
OK,193,41,949,193,2014-10-01T10:15:00,2,28117208,192520
OK,153,52,949,153,2014-10-01T10:20:00,1,28117633,192520
OK,150,53,949,150,2014-10-01T10:25:00,3,28118082,192520
OK,150,53,949,150,2014-10-01T10:30:00,5,28118527,192520
OK,157,51,949,157,2014-10-01T10:35:00,3,28118974,192520
OK,191,42,949,191,2014-10-01T10:40:00,2,28119418,192520
OK,191,42,949,191,2014-10-01T10:45:00,0,28119866,192520
OK,191,42,949,191,2014-10-01T10:50:00,0,28120314,192520
OK,191,42,949,191,2014-10-01T10:55:00,0,28120763,192520
OK,191,42,949,191,2014-10-01T11:00:00,0,28121146,192520
OK,228,35,949,228,2014-10-01T11:05:00,2,28121595,192520
OK,228,35,949,228,2014-10-01T11:10:00,3,28122033,192520
OK,159,50,949,159,2014-10-01T11:15:00,3,28122482,192520
OK,161,50,949,161,2014-10-01T11:20:00,2,28122923,192520
OK,159,50,949,159,2014-10-01T11:25:00,0,28123372,192520
OK,159,50,949,159,2014-10-01T11:30:00,0,28123804,192520
OK,159,50,949,159,2014-10-01T11:35:00,0,28124253,192520
OK,139,58,949,139,2014-10-01T11:40:00,2,28124655,192520
OK,140,57,949,140,2014-10-01T11:45:00,1,28125104,192520
OK,140,57,949,140,2014-10-01T11:50:00,0,28125533,192520
OK,140,57,949,140,2014-10-01T11:55:00,0,28125982,192520
OK,159,50,949,159,2014-10-01T12:00:00,2,28126334,192520
OK,181,44,949,181,2014-10-01T12:05:00,3,28126783,192520
OK,171,47,949,171,2014-10-01T12:10:00,3,28127232,192520
OK,171,47,949,171,2014-10-01T12:15:00,1,28127681,192520
OK,137,59,949,137,2014-10-01T12:20:00,1,28128109,192520
OK,192,42,949,192,2014-10-01T12:25:00,2,28128558,192520
OK,248,32,949,248,2014-10-01T12:30:00,1,28128993,192520
OK,242,33,949,242,2014-10-01T12:35:00,1,28129442,192520
OK,153,52,949,153,2014-10-01T12:40:00,3,28129876,192520
OK,150,53,949,150,2014-10-01T12:45:00,2,28130325,192520
OK,164,49,949,164,2014-10-01T12:50:00,3,28130753,192520
OK,173,46,949,173,2014-10-01T12:55:00,2,28131202,192520
OK,164,49,949,164,2014-10-01T13:00:00,2,28131639,192520
OK,162,49,949,162,2014-10-01T13:05:00,1,28132088,192520
OK,138,58,949,138,2014-10-01T13:10:00,1,28132526,192520
OK,178,45,949,178,2014-10-01T13:15:00,2,28132973,192520
OK,160,50,949,160,2014-10-01T13:20:00,3,28133411,192520
OK,158,51,949,158,2014-10-01T13:25:00,4,28133860,192520
OK,217,37,949,217,2014-10-01T13:30:00,2,28134299,192520
OK,173,46,949,173,2014-10-01T13:35:00,3,28134748,192520
OK,145,55,949,145,2014-10-01T13:40:00,1,28135167,192520
OK,175,46,949,175,2014-10-01T13:45:00,2,28135616,192520
OK,144,56,949,144,2014-10-01T13:50:00,5,28136053,192520
OK,159,50,949,159,2014-10-01T13:55:00,7,28136502,192520
OK,160,50,949,160,2014-10-01T14:00:00,4,28136942,192520
OK,153,52,949,153,2014-10-01T14:05:00,1,28137391,192520
OK,162,49,949,162,2014-10-01T14:10:00,2,28137825,192520
OK,152,53,949,152,2014-10-01T14:15:00,1,28138274,192520
OK,182,44,949,182,2014-10-01T14:20:00,1,28138702,192520
OK,182,44,949,182,2014-10-01T14:25:00,1,28139151,192520
OK,202,40,949,202,2014-10-01T14:30:00,1,28139562,192520
OK,167,48,949,167,2014-10-01T14:35:00,2,28140011,192520
OK,236,34,949,236,2014-10-01T14:40:00,1,28140453,192520
OK,190,42,949,190,2014-10-01T14:45:00,2,28140902,192520
OK,144,56,949,144,2014-10-01T14:50:00,1,28141328,192520
OK,225,35,949,225,2014-10-01T14:55:00,2,28141777,192520
OK,225,35,949,225,2014-10-01T15:00:00,2,28142205,192520
OK,163,49,949,163,2014-10-01T15:05:00,3,28142654,192520
OK,163,49,949,163,2014-10-01T15:10:00,3,28143081,192520
OK,163,49,949,163,2014-10-01T15:15:00,0,28143530,192520
OK,163,49,949,163,2014-10-01T15:20:00,0,28143978,192520
OK,220,36,949,220,2014-10-01T15:25:00,1,28144427,192520
OK,164,49,949,164,2014-10-01T15:30:00,2,28144848,192520
OK,108,74,949,108,2014-10-01T15:35:00,1,28145262,192520
OK,108,74,949,108,2014-10-01T15:40:00,0,28145711,192520
OK,131,61,949,131,2014-10-01T15:45:00,1,28146160,192520
OK,152,53,949,152,2014-10-01T15:50:00,2,28146609,192520
OK,174,46,949,174,2014-10-01T15:55:00,0,28147017,192520
OK,174,46,949,174,2014-10-01T16:00:00,0,28147461,192520
OK,174,46,949,174,2014-10-01T16:05:00,0,28147910,192520
OK,174,46,949,174,2014-10-01T16:10:00,0,28148311,192520
OK,174,46,949,174,2014-10-01T16:15:00,0,28148760,192520
OK,174,46,949,174,2014-10-01T16:20:00,0,28149199,192520
OK,174,46,949,174,2014-10-01T16:25:00,0,28149648,192520
OK,128,63,949,128,2014-10-01T16:30:00,1,28150074,192520
OK,128,63,949,128,2014-10-01T16:35:00,1,28150523,192520
OK,128,63,949,128,2014-10-01T16:40:00,0,28150941,192520
OK,128,63,949,128,2014-10-01T16:45:00,0,28151390,192520
OK,128,63,949,128,2014-10-01T16:50:00,0,28151839,192520
OK,154,52,949,154,2014-10-01T17:00:00,1,28152288,192520
OK,154,52,949,154,2014-10-01T17:05:00,0,28152734,192520
OK,154,52,949,154,2014-10-01T17:10:00,0,28153181,192520
OK,143,56,949,143,2014-10-01T17:15:00,3,28153630,192520
OK,143,56,949,143,2014-10-01T17:20:00,3,28154040,192520
OK,142,56,949,142,2014-10-01T17:25:00,2,28154489,192520
OK,145,55,949,145,2014-10-01T17:30:00,3,28154931,192520
OK,136,59,949,136,2014-10-01T17:35:00,0,28155379,192520
OK,136,59,949,136,2014-10-01T17:40:00,0,28155797,192520
OK,136,59,949,136,2014-10-01T17:45:00,0,28156246,192520
OK,153,52,949,153,2014-10-01T17:50:00,1,28156695,192520
OK,153,52,949,153,2014-10-01T17:55:00,1,28157133,192520
OK,153,52,949,153,2014-10-01T18:00:00,0,28157563,192520
OK,153,52,949,153,2014-10-01T18:05:00,0,28158011,192520
OK,153,52,949,153,2014-10-01T18:10:00,0,28158455,192520
OK,153,52,949,153,2014-10-01T18:15:00,0,28158901,192520
OK,153,52,949,153,2014-10-01T18:20:00,0,28159347,192520
OK,153,52,949,153,2014-10-01T18:25:00,0,28159682,192520
OK,153,52,949,153,2014-10-01T18:30:00,0,28160131,192520
OK,153,52,949,153,2014-10-01T18:35:00,0,28160580,192520
OK,153,52,949,153,2014-10-01T18:40:00,0,28161018,192520
OK,153,52,949,153,2014-10-01T18:45:00,0,28161467,192520
OK,153,52,949,153,2014-10-01T18:50:00,0,28161884,192520
OK,153,52,949,153,2014-10-01T18:55:00,0,28162333,192520
OK,153,52,949,153,2014-10-01T19:00:00,0,28162727,192520
OK,153,52,949,153,2014-10-01T19:05:00,0,28163166,192520
OK,153,52,949,153,2014-10-01T19:10:00,0,28163614,192520
OK,153,52,949,153,2014-10-01T19:15:00,0,28164063,192520
OK,153,52,949,153,2014-10-01T19:20:00,0,28164494,192520
OK,153,52,949,153,2014-10-01T19:25:00,0,28164943,192520
OK,153,52,949,153,2014-10-01T19:30:00,0,28165368,192520
OK,153,52,949,153,2014-10-01T19:35:00,0,28165816,192520
OK,153,52,949,153,2014-10-01T19:40:00,0,28166257,192520
OK,153,52,949,153,2014-10-01T19:45:00,0,28166619,192520
OK,153,52,949,153,2014-10-01T19:50:00,0,28167068,192520
OK,153,52,949,153,2014-10-01T19:55:00,0,28167497,192520
OK,153,52,949,153,2014-10-01T20:00:00,0,28167930,192520
OK,153,52,949,153,2014-10-01T20:05:00,0,28168379,192520
OK,153,52,949,153,2014-10-01T20:10:00,0,28168824,192520
OK,153,52,949,153,2014-10-01T20:15:00,0,28169273,192520
OK,153,52,949,153,2014-10-01T20:20:00,0,28169721,192520
OK,153,52,949,153,2014-10-01T20:25:00,0,28170147,192520
OK,153,52,949,153,2014-10-01T20:30:00,0,28170592,192520
OK,153,52,949,153,2014-10-01T20:35:00,0,28171040,192520
OK,153,52,949,153,2014-10-01T20:40:00,0,28171477,192520
OK,153,52,949,153,2014-10-01T20:45:00,0,28171923,192520
OK,153,52,949,153,2014-10-01T20:50:00,0,28172371,192520
OK,153,52,949,153,2014-10-01T20:55:00,0,28172817,192520
OK,153,52,949,153,2014-10-01T21:00:00,0,28173263,192520
OK,153,52,949,153,2014-10-01T21:05:00,0,28173712,192520
OK,153,52,949,153,2014-10-01T21:10:00,0,28174153,192520
OK,129,62,949,129,2014-10-01T21:15:00,0,28174602,192520
OK,129,62,949,129,2014-10-01T21:20:00,0,28175028,192520
OK,129,62,949,129,2014-10-01T21:25:00,0,28175424,192520
OK,122,66,949,122,2014-10-01T21:30:00,1,28175873,192520
OK,122,66,949,122,2014-10-01T21:35:00,0,28176322,192520
OK,122,66,949,122,2014-10-01T21:40:00,0,28176771,192520
OK,122,66,949,122,2014-10-01T21:45:00,0,28177127,192520
OK,122,66,949,122,2014-10-01T21:50:00,0,28177567,192520
OK,122,66,949,122,2014-10-01T21:55:00,0,28178013,192520
OK,122,66,949,122,2014-10-01T22:00:00,0,28178462,192520
OK,122,66,949,122,2014-10-01T22:05:00,0,28178909,192520
OK,122,66,949,122,2014-10-01T22:10:00,0,28179343,192520
OK,122,66,949,122,2014-10-01T22:15:00,0,28179786,192520
OK,122,66,949,122,2014-10-01T22:20:00,0,28180233,192520
OK,122,66,949,122,2014-10-01T22:25:00,0,28180631,192520
OK,122,66,949,122,2014-10-01T22:30:00,0,28181080,192520
OK,122,66,949,122,2014-10-01T22:35:00,0,28181504,192520
OK,122,66,949,122,2014-10-01T22:40:00,0,28181952,192520
OK,122,66,949,122,2014-10-01T22:45:00,0,28182399,192520
OK,122,66,949,122,2014-10-01T22:50:00,0,28182848,192520
OK,122,66,949,122,2014-10-01T22:55:00,0,28183265,192520
OK,122,66,949,122,2014-10-01T23:00:00,0,28183698,192520
OK,122,66,949,122,2014-10-01T23:05:00,0,28184143,192520
OK,122,66,949,122,2014-10-01T23:10:00,0,28184592,192520
OK,122,66,949,122,2014-10-01T23:15:00,0,28185027,192520
OK,122,66,949,122,2014-10-01T23:20:00,0,28185475,192520
OK,122,66,949,122,2014-10-01T23:25:00,0,28185906,192520
OK,122,66,949,122,2014-10-01T23:30:00,0,28186298,192520
OK,122,66,949,122,2014-10-01T23:40:00,0,28187145,192520
OK,122,66,949,122,2014-10-01T23:55:00,0,28188477,192520
OK,122,66,949,122,2014-10-02T00:05:00,0,28189362,192520
OK,122,66,949,122,2014-10-02T00:10:00,0,28189784,192520
OK,122,66,949,122,2014-10-02T00:15:00,0,28190233,192520
OK,122,66,949,122,2014-10-02T00:20:00,0,28190586,192520
OK,122,66,949,122,2014-10-02T00:30:00,0,28191484,192520
OK,122,66,949,122,2014-10-02T00:35:00,0,28191790,192520
OK,122,66,949,122,2014-10-02T00:40:00,0,28192239,192520
OK,122,66,949,122,2014-10-02T00:45:00,0,28192672,192520
OK,122,66,949,122,2014-10-02T00:50:00,0,28193116,192520
OK,122,66,949,122,2014-10-02T00:55:00,0,28193483,192520
OK,122,66,949,122,2014-10-02T01:05:00,0,28194381,192520
OK,122,66,949,122,2014-10-02T01:10:00,0,28194830,192520
OK,122,66,949,122,2014-10-02T01:15:00,0,28195067,192520
OK,122,66,949,122,2014-10-02T01:25:00,0,28195964,192520
OK,122,66,949,122,2014-10-02T01:30:00,0,28196252,192520
OK,122,66,949,122,2014-10-02T01:35:00,0,28196697,192520
OK,122,66,949,122,2014-10-02T01:40:00,0,28197120,192520
OK,122,66,949,122,2014-10-02T01:45:00,0,28197569,192520
OK,122,66,949,122,2014-10-02T01:50:00,0,28198017,192520
OK,122,66,949,122,2014-10-02T01:55:00,0,28198465,192520
OK,122,66,949,122,2014-10-02T02:00:00,0,28198914,192520
OK,122,66,949,122,2014-10-02T02:05:00,0,28199286,192520
OK,122,66,949,122,2014-10-02T02:10:00,0,28199728,192520
OK,122,66,949,122,2014-10-02T02:15:00,0,28200170,192520
OK,122,66,949,122,2014-10-02T02:20:00,0,28200613,192520
OK,122,66,949,122,2014-10-02T02:25:00,0,28201062,192520
OK,122,66,949,122,2014-10-02T02:30:00,0,28201493,192520
OK,122,66,949,122,2014-10-02T02:45:00,0,28202391,192520
OK,122,66,949,122,2014-10-02T02:50:00,0,28202833,192520
OK,122,66,949,122,2014-10-02T02:55:00,0,28203281,192520
OK,122,66,949,122,2014-10-02T03:00:00,0,28203716,192520
OK,122,66,949,122,2014-10-02T03:10:00,0,28204165,192520
OK,122,66,949,122,2014-10-02T03:25:00,0,28204614,192520
OK,122,66,949,122,2014-10-02T03:30:00,0,28205063,192520
OK,122,66,949,122,2014-10-02T03:35:00,0,28205491,192520
OK,122,66,949,122,2014-10-02T03:40:00,0,28205938,192520
OK,122,66,949,122,2014-10-02T03:45:00,0,28206321,192520
OK,122,66,949,122,2014-10-02T03:55:00,0,28207219,192520
OK,122,66,949,122,2014-10-02T04:00:00,0,28207639,192520
OK,122,66,949,122,2014-10-02T04:05:00,0,28208087,192520
OK,122,66,949,122,2014-10-02T04:10:00,0,28208514,192520
OK,122,66,949,122,2014-10-02T04:15:00,0,28208963,192520
OK,122,66,949,122,2014-10-02T04:20:00,0,28209401,192520
OK,0,0,949,0,2014-10-02T04:25:00,0,28209850,192520
OK,122,66,949,122,2014-10-02T04:30:00,0,28210273,192520
OK,122,66,949,122,2014-10-02T04:35:00,0,28210722,192520
OK,122,66,949,122,2014-10-02T04:40:00,0,28211147,192520
OK,122,66,949,122,2014-10-02T04:45:00,0,28211591,192520
OK,122,66,949,122,2014-10-02T04:50:00,0,28211969,192520
OK,122,66,949,122,2014-10-02T04:55:00,0,28212418,192520
OK,122,66,949,122,2014-10-02T05:00:00,0,28212847,192520
OK,163,49,949,163,2014-10-02T05:05:00,2,28213296,192520
OK,163,49,949,163,2014-10-02T05:10:00,0,28213734,192520
OK,163,49,949,163,2014-10-02T05:15:00,0,28214183,192520
OK,163,49,949,163,2014-10-02T05:20:00,0,28214596,192520
OK,163,49,949,163,2014-10-02T05:25:00,0,28215045,192520
OK,163,49,949,163,2014-10-02T05:30:00,0,28215461,192520
OK,163,49,949,163,2014-10-02T05:35:00,0,28215910,192520
OK,169,47,949,169,2014-10-02T05:40:00,1,28216250,192520
OK,169,47,949,169,2014-10-02T05:45:00,0,28216689,192520
OK,169,47,949,169,2014-10-02T05:50:00,0,28217136,192520
OK,169,47,949,169,2014-10-02T05:55:00,0,28217585,192520
OK,169,47,949,169,2014-10-02T06:00:00,0,28218024,192520
OK,169,47,949,169,2014-10-02T06:05:00,0,28218473,192520
OK,169,47,949,169,2014-10-02T06:10:00,0,28218893,192520
OK,176,45,949,176,2014-10-02T06:15:00,2,28219342,192520
OK,176,45,949,176,2014-10-02T06:20:00,2,28219715,192520
OK,176,45,949,176,2014-10-02T06:25:00,0,28220164,192520
OK,166,48,949,166,2014-10-02T06:30:00,1,28220598,192520
OK,166,48,949,166,2014-10-02T06:35:00,0,28221047,192520
OK,159,50,949,159,2014-10-02T06:40:00,1,28221428,192520
OK,161,50,949,161,2014-10-02T06:45:00,2,28221714,192520
OK,164,49,949,164,2014-10-02T07:00:00,0,28222308,192520
OK,155,52,949,155,2014-10-02T07:05:00,1,28222757,192520
OK,155,52,949,155,2014-10-02T07:10:00,1,28223188,192520
OK,155,52,949,155,2014-10-02T07:15:00,0,28223623,192520
OK,155,52,949,155,2014-10-02T07:20:00,0,28224071,192520
OK,141,57,949,141,2014-10-02T07:25:00,0,28224426,192520
OK,141,57,949,141,2014-10-02T07:30:00,0,28224875,192520
OK,141,57,949,141,2014-10-02T07:35:00,0,28225324,192520
OK,141,57,949,141,2014-10-02T07:40:00,0,28225646,192520
OK,141,57,949,141,2014-10-02T07:50:00,0,28226536,192520
OK,141,57,949,141,2014-10-02T07:55:00,0,28226985,192520
OK,141,57,949,141,2014-10-02T08:00:00,0,28227400,192520
OK,158,51,949,158,2014-10-02T08:05:00,1,28227849,192520
OK,158,51,949,158,2014-10-02T08:10:00,0,28228208,192520
OK,161,50,949,161,2014-10-02T08:20:00,0,28229067,192520
OK,126,64,949,126,2014-10-02T08:25:00,1,28229516,192520
OK,126,64,949,126,2014-10-02T08:30:00,1,28229866,192520
OK,215,37,949,215,2014-10-02T08:35:00,0,28230315,192520
OK,215,37,949,215,2014-10-02T08:40:00,0,28230681,192520
OK,215,37,949,215,2014-10-02T08:45:00,0,28231130,192520
OK,126,64,949,126,2014-10-02T08:50:00,1,28231553,192520
OK,126,64,949,126,2014-10-02T08:55:00,0,28232002,192520
OK,126,64,949,126,2014-10-02T09:00:00,0,28232344,192520
OK,126,64,949,126,2014-10-02T09:10:00,0,28232793,192520
OK,145,55,949,145,2014-10-02T09:15:00,0,28233242,192520
OK,145,55,949,145,2014-10-02T09:20:00,0,28233666,192520
OK,149,54,949,149,2014-10-02T09:25:00,1,28234115,192520
OK,149,54,949,149,2014-10-02T09:30:00,1,28234448,192520
OK,139,58,949,139,2014-10-02T09:40:00,0,28235324,192520
OK,145,55,949,145,2014-10-02T09:45:00,1,28235773,192520
OK,145,55,949,145,2014-10-02T09:50:00,1,28236216,192520
OK,152,53,949,152,2014-10-02T09:55:00,1,28236663,192520
OK,152,53,949,152,2014-10-02T10:00:00,0,28237066,192520
OK,152,53,949,152,2014-10-02T10:05:00,0,28237514,192520
OK,206,39,949,206,2014-10-02T10:10:00,1,28237962,192520
OK,167,48,949,167,2014-10-02T10:15:00,2,28238409,192520
OK,128,63,949,128,2014-10-02T10:20:00,0,28238850,192520
OK,128,63,949,128,2014-10-02T10:25:00,0,28239299,192520
OK,128,63,949,128,2014-10-02T10:30:00,0,28239729,192520
OK,146,55,949,146,2014-10-02T10:35:00,2,28240178,192520
OK,186,43,949,186,2014-10-02T10:40:00,1,28240622,192520
OK,186,43,949,186,2014-10-02T10:45:00,0,28241071,192520
OK,186,43,949,186,2014-10-02T10:50:00,0,28241503,192520
OK,259,31,949,259,2014-10-02T10:55:00,1,28241951,192520
OK,259,31,949,259,2014-10-02T11:00:00,1,28242347,192520
OK,259,31,949,259,2014-10-02T11:05:00,0,28242796,192520
OK,153,52,949,153,2014-10-02T11:10:00,3,28243245,192520
OK,153,52,949,153,2014-10-02T11:15:00,4,28243574,192520
OK,142,56,949,142,2014-10-02T11:20:00,2,28244008,192520
OK,135,59,949,135,2014-10-02T11:25:00,1,28244437,192520
OK,135,59,949,135,2014-10-02T11:30:00,0,28244886,192520
OK,164,49,949,164,2014-10-02T11:35:00,0,28245335,192520
OK,164,49,949,164,2014-10-02T11:40:00,0,28245741,192520
OK,164,49,949,164,2014-10-02T11:45:00,0,28246190,192520
OK,145,55,949,145,2014-10-02T11:50:00,1,28246627,192520
OK,145,55,949,145,2014-10-02T11:55:00,0,28247076,192520
OK,167,48,949,167,2014-10-02T12:00:00,1,28247522,192520
OK,167,48,949,167,2014-10-02T12:05:00,1,28247952,192520
OK,167,48,949,167,2014-10-02T12:10:00,0,28248401,192520
OK,140,57,949,140,2014-10-02T12:15:00,2,28248848,192520
OK,140,57,949,140,2014-10-02T12:20:00,2,28249276,192520
OK,149,54,949,149,2014-10-02T12:25:00,3,28249720,192520
OK,166,48,949,166,2014-10-02T12:30:00,1,28250139,192520
OK,166,48,949,166,2014-10-02T12:35:00,0,28250537,192520
OK,162,49,949,162,2014-10-02T13:20:00,2,28251862,192520
OK,286,28,949,286,2014-10-02T13:30:00,2,28252446,192520
OK,276,29,949,276,2014-10-02T13:35:00,0,28252888,192520
OK,276,29,949,276,2014-10-02T13:40:00,0,28253305,192520
OK,166,48,949,166,2014-10-02T13:45:00,4,28253754,192520
OK,157,51,949,157,2014-10-02T13:50:00,3,28254159,192520
OK,146,55,949,146,2014-10-02T13:55:00,2,28254480,192520
OK,150,53,949,150,2014-10-02T14:10:00,0,28255057,192520
OK,214,37,949,214,2014-10-02T14:15:00,4,28255506,192520
OK,150,53,949,150,2014-10-02T14:20:00,1,28255934,192520
OK,150,53,949,150,2014-10-02T14:25:00,0,28256383,192520
OK,140,57,949,140,2014-10-02T14:30:00,1,28256811,192520
OK,144,56,949,144,2014-10-02T14:35:00,2,28257260,192520
OK,167,48,949,167,2014-10-02T14:40:00,2,28257701,192520
OK,166,48,949,166,2014-10-02T14:45:00,5,28258149,192520
OK,157,51,949,157,2014-10-02T14:50:00,6,28258582,192520
OK,152,53,949,152,2014-10-02T14:55:00,3,28259028,192520
OK,151,53,949,151,2014-10-02T15:00:00,1,28259477,192520
OK,146,55,949,146,2014-10-02T15:05:00,2,28259924,192520
OK,147,55,949,147,2014-10-02T15:10:00,3,28260357,192520
OK,281,28,949,281,2014-10-02T15:15:00,1,28260806,192520